Regional Weather Roundup
Issued by NWS Portland, ME

Current Version | Previous Version | Text Only | Print | Product List | Glossary Off
Versions: 1 2 3 4 5 6 7 8 9 10 11 12 13 14 15 16 17 18 19 20 21 22 23 24 25 26 27 28 29 30 31 32 33 34 35 36 37 38 39 40 41 42 43 44 45 46 47 48 49 50
000 ASUS41 KGYX 170410 RWRGYX WEATHER ROUNDUP FOR MAINE AND NEW HAMPSHIRE NATIONAL WEATHER SERVICE GRAY ME 1100 PM EST SUN DEC 16 2018 MEZ002-005-006-010-012-015-018-020-021-024-026-027-029-170500- MAINE CITY SKY/WX TMP DP RH WIND PRES REMARKS PORTLAND FLURRIES 35 30 82 NE12G18 29.91F SANFORD LGT SNOW 33 31 92 N13 29.87F FOG BAR HARBOR MOCLDY 33 30 88 NE6 29.95F WISCASSET MOCLDY 34 28 79 CALM 29.92F ROCKLAND MOCLDY 37 32 82 NE13 29.91F FRYEBURG CLOUDY 33 25 72 N7 29.92F LEWISTONAUBURN CLOUDY 31 27 85 N7 29.92F AUGUSTA FAIR 31 25 78 N9 29.93F WATERVILLE FAIR 30 26 85 MISG 29.91F BANGOR CLOUDY 29 26 89 N3 29.96F GREENVILLE N/A 27 21 78 SE8 29.89F MILLINOCKET FAIR 27 23 85 CALM 29.99F HOULTON FAIR 28 24 85 E7 29.96F PRESQUE ISLE FAIR 16 14 92 CALM 29.99F FRENCHVILLE FAIR 24 20 84 E6 29.95F CARIBOU FAIR 22 18 85 E3 29.97F $$ NHZ002-005-008-009-011-012-014-170500- NEW HAMPSHIRE CITY SKY/WX TMP DP RH WIND PRES REMARKS PORTSMOUTH LGT RAIN 34 32 93 N10 29.83F ROCHESTER RAIN 33 32 96 N9 29.85F NASHUA RAIN 34 34 100 N8 29.84F FOG MANCHESTER LGTSLEET 35 32 88 N10 29.83F CONCORD LGT RAIN 33 31 92 N7 29.86F LACONIA FLURRIES 34 27 75 NE8 29.88 PLYMOUTH CLOUDY 36 27 71 E3 29.89F BERLIN FAIR 27 24 89 CALM 29.89F WHITEFIELD FAIR 29 24 82 CALM 29.86F JAFFREY FRZ RAIN 33 33 100 VRB6 29.79F FOG KEENE FLURRIES 33 31 92 N7 29.84F LEBANON CLOUDY 33 26 75 CALM 29.88F MT WASHINGTON MOCLDY 19 -2 38 E35 N/A WCI -1 $$ VTZ005-007-008-170500- VERMONT CITY SKY/WX TMP DP RH WIND PRES REMARKS MONTPELIER FAIR 29 27 92 CALM 29.90F BURLINGTON CLOUDY 33 28 81 CALM 29.88F $$ MAZ007-012-024-CTZ003-RIZ002-NYZ038-NYZ072-170500- SOUTHERN NEW ENGLAND AND NY CITY SKY/WX TMP DP RH WIND PRES REMARKS BOSTON LGT RAIN 41 38 89 NE21G29 29.78F FOG WORCESTER LGT RAIN 33 32 96 NE17G28 29.74F FOG NANTUCKET LGT RAIN 45 44 97 NE16 29.62F FOG PROVIDENCE LGT RAIN 40 39 97 NE17 29.72F FOG HARTFORD DRIZZLE 35 34 96 N16 29.77F FOG ALBANY LGT SNOW 34 31 88 N6 29.88F FOG NEW YORK CITY CLOUDY 38 34 85 N14G26 29.77F $$ ANZ081-ANZ082-ANZ150-NHZ014-MEZ023>029-170500- COASTAL MARINE OBSERVATIONS STATION/POSITION TIME TEMP WIND PRES WAVE AIR SEA DIR/SP/G HT/PER (UTC) (F) (DEG/KT/KT) (MB) (FT/S) MOUNT DESERT ROC 0400 38 60/ 23/ 25 1012.3F MATINICUS ROCK 0300 40 70/ 28/ 30 1012.4F ISLE OF SHOALS 0300 40 50/ 24/ 28 1010.2F JEFFREYS LEDGE 0338 46 N/A 10/ 7 CASHES LEDGE BUO 0350 39 46 1009.5F 10/ 7 $$ .............KEY.............. WCI - WIND CHILL TC - TEMPERATURE IN CELSIUS VSB - VISIBILITY IN MILES HX - HEAT INDEX FAIR- INDICATES FEW OR NO CLOUDS BELOW 12,000 FT, WITH NO SIGNIFICANT WEATHER AND/OR OBSTRUCTIONS TO VISIBILITY.

USA.gov is the U.S. government's official web portal to all federal, state and local government web resources and services.